STARLINK-34881, 65347

Orbit data source: Space-Track

STARLINK-34881, 65347 is a payload satellite owned by SpaceX/Seattle (US) in LEO that was launched on Wed, 27 Aug 2025 UTC via an FALCON 9 launch vehicle from the Air Force Eastern Test Range (AFETR). Payload-class satellites include a variety of spacecraft equipped with specific instruments for various scientific and technological missions. These include communications satellites like Starlink; space stations such as the ISS; scientific satellites like the Hubble; Earth observation satellites from companies like Planet Labs, Umbra, and HawkEye 360; GPS; miniature CubeSats for education and research; and military/defense satellites.

Loading next visibility...
Identifier
65347, 2025-189AA
Orbit
LEO
Country
Flag of USUS
Related business
Manufacturer
SpaceX/Seattle
Mission
Operational Commercial Communications
Bus & Motor
STARLINK V2MO, Unknown motor
Mass
575 kg wet, ~530 kg dry
Launch date (UTC)
2025-08-27 (10 months ago)
Launch vehicle
FALCON 9
Launch site
Air Force Eastern Test Range (AFETR)
Object type
Payload
Rocket body
Debris
Shape & HBR
Box + 2 Pan, 17.7 m
Radar Cross Section
36.964 m², Large (>1 m²)

Expand to show TLE details & history
Last TLE update: 21 hours ago

TLE from 21 hours ago
0 STARLINK-34881
1 65347U 25189AA  26170.97299606  .00022952  00000-0  74860-3 0  9992
2 65347  53.1595  91.1643 0001325  97.4230 262.6922 15.31721955 46777
Epoch: 2026-06-19T23:21Z
TLE epoch observation values (Epoch: 2026-06-19T23:21:06.859Z)
Latitude
-0.00003°
Longitude
-167.30859°
Altitude
471.69 km
Speed
7.631 km/s
True Right ascension
06h 04m 39s
True Declination
0° 00' 00"
Sunlit
Object was in daylight at epoch
Visualization orbit readout
Latitude
Unknown
Longitude
Unknown
Altitude
Unknown
Speed
Unknown
Apparent Right ascension
Unknown
Apparent Declination
Unknown
Sunlit
N/A
Visualization observer readout
Local Sidereal Time
07:12:33
Azimuth
Unknown
Elevation
Unknown
Doppler factor
Unknown
Orbital elements
Apogee altitude
471.839 km
Perigee altitude
470.024 km
Semi-major axis
6,849.068 km
Eccentricity
0.00013
Inclination
53.1595°
RAAN
91.1643°
Arg. of periapsis
97.423°
True anomaly
262.67714°
Mean anomaly
262.6922°
Eccentric anomaly
262.68467°
Mean motion
3.82909 °/min
Orbital period
94.02 mins
BSTAR
0.0007486
Loading maneuver chart data...
Computing Atmospheric mass density...
Loading historical data...
Loading historical data...
Loading historical data...
Loading historical data...
Loading historical data...
Loading historical data...
Loading historical data...

Documentation

Showing up to 5 results
|